Location: Caltech
(34.1382°N, 118.1253°W)
Time: 20:10:16
(UTC-07:00)

Cosmos 1833 - Visible Passes

Search period start: 31 March 2015 00:00
Search period end: 10 April 2015 00:00
Orbit: 841 x 858 km, 70.9° (Epoch: 31 March)

Date Brightness Start Highest point End Pass type
(mag) Time Alt. Az. Time Alt. Az. Time Alt. Az.
31 Mar 4.2 04:48:28 10° NNW 04:54:08 79° ENE 04:59:48 10° SSE visible
31 Mar 6.6 19:38:21 10° WSW 19:43:07 27° WNW 19:47:47 10° N visible
01 Apr 4.2 04:35:48 10° NNW 04:41:28 78° ENE 04:47:09 10° SSE visible
02 Apr 4.2 04:23:08 10° NNW 04:28:48 78° ENE 04:34:29 10° SSE visible
02 Apr 5.9 06:10:58 10° W 06:12:28 11° W 06:13:30 10° WSW visible
03 Apr 4.2 04:10:28 10° NNW 04:16:08 77° ENE 04:21:49 10° SSE visible
03 Apr 5.9 05:58:14 10° W 05:59:48 11° W 06:00:57 10° WSW visible
04 Apr 4.9 03:57:48 10° NNW 04:01:45 46° N 04:01:45 46° N visible
05 Apr 5.8 03:45:09 10° NNW 03:47:29 26° NNW 03:47:29 26° NNW visible
06 Apr 6.2 03:32:29 10° NNW 03:33:56 19° NNW 03:33:56 19° NNW visible
07 Apr 6.5 03:19:49 10° NNW 03:20:43 15° NNW 03:20:43 15° NNW visible
08 Apr 6.7 03:07:10 10° NNW 03:07:41 13° NNW 03:07:41 13° NNW visible
09 Apr 6.8 02:54:30 10° NNW 02:54:46 11° NNW 02:54:46 11° NNW visible
